St. Johns, AZ

1:54 PM MST on April 26, 2017 (GMT -0700)
Saint Johns Industrial

Weather History for KSJN - August, 2013

Change the Weather History Date:

Friday, August 30, 2013

  Actual Average (KLSB) Record (KLSB)
Temperature  
Mean Temperature 64 °F -  
Max Temperature 73 °F 92 °F 95 °F (2014)
Min Temperature 54 °F 59 °F 60 °F (2014)
Degree Days  
Heating Degree Days 2    
Growing Degree Days 14 (Base 50)    
Moisture  
Dew Point 59 °F    
Average Humidity 72    
Maximum Humidity 95    
Minimum Humidity 45    
Precipitation  
Precipitation 0.31 in - - ()
Sea Level Pressure  
Sea Level Pressure 30.05 in    
Wind  
Wind Speed 4 mph (SSW)    
Max Wind Speed 16 mph    
Max Gust Speed -    
Visibility 10 miles    
Events Rain , Thunderstorm    
Averages and records for this station are not official NWS values.
T = Trace of Precipitation, MM = Missing Value Source: NWS Daily Summary

Daily Weather History Graph

Daily Weather History Graph

Search for Another Location

Airport or City:

Trip Planner

Search our weather history database for the weather conditions in past years. The results will help you decide how hot, cold, wet, or windy it might be!

Date:

Astronomy

Aug. 30, 2013 Rise Set
Actual Time 5:49 AM MST 6:46 PM MST
Civil Twilight 5:23 AM MST 7:11 PM MST
Nautical Twilight 4:53 AM MST 7:42 PM MST
Astronomical Twilight 4:21 AM MST 8:13 PM MST
Moon 12:38 AM MST (8/30) 2:56 PM MST (8/30)
Length of Visible Light 13h 48m
Length of Day
12h 56m
Waning Crescent, 28% of the Moon is Illuminated
Aug 30
Waning Crescent
Sep 5
New
Sep 12
First Quarter
Sep 19
Full
Sep 26
Last Quarter

Hourly Weather History & Observations

Time (MST) Temp. Heat Index Dew Point Humidity Pressure Visibility Wind Dir Wind Speed Gust Speed Precip Events Conditions
12:54 AM 64.0 °F - 59.0 °F 84% 30.03 in 10.0 mi NW 4.6 mph - 0.00 in   Overcast
1:54 AM 64.0 °F - 59.0 °F 84% 30.03 in 10.0 mi North 3.5 mph - 0.00 in   Overcast
2:54 AM 64.0 °F - 60.1 °F 87% 30.06 in 10.0 mi Calm Calm - 0.01 in Rain Light Rain
3:54 AM 63.0 °F - 60.1 °F 90% 30.05 in 10.0 mi NE 3.5 mph - 0.00 in   Mostly Cloudy
4:54 AM 63.0 °F - 60.1 °F 90% 30.04 in 10.0 mi NNE 3.5 mph - N/A   Scattered Clouds
5:54 AM 62.1 °F - 60.1 °F 93% 30.05 in 10.0 mi Calm Calm - N/A   Clear
6:54 AM 63.0 °F - 60.1 °F 90% 30.08 in 10.0 mi Calm Calm - N/A   Scattered Clouds
7:54 AM 66.0 °F - 59.0 °F 78% 30.09 in 10.0 mi Calm Calm - N/A   Overcast
8:54 AM 70.0 °F - 60.1 °F 71% 30.08 in 10.0 mi SE 5.8 mph - N/A   Overcast
9:54 AM 73.9 °F - 59.0 °F 59% 30.06 in 10.0 mi Calm Calm - N/A   Overcast
10:54 AM 77.0 °F - 57.9 °F 52% 30.02 in 10.0 mi NE 5.8 mph - N/A   Overcast
11:54 AM 80.1 °F 80.4 °F 57.0 °F 45% 30.01 in 10.0 mi East 6.9 mph - N/A   Mostly Cloudy
12:54 PM 79.0 °F - 57.9 °F 48% 29.99 in 10.0 mi SW 16.1 mph - N/A   Mostly Cloudy
1:31 PM 75.2 °F - 60.8 °F 61% 30.27 in 10.0 mi WSW 10.4 mph - 0.00 in Rain , Thunderstorm Light Thunderstorms and Rain
1:54 PM 77.0 °F - 59.0 °F 54% 29.99 in 10.0 mi West 4.6 mph - 0.00 in   Scattered Clouds
2:24 PM 71.6 °F - 59.0 °F 64% 30.25 in 10.0 mi South 16.1 mph - 0.00 in Rain Light Rain
2:54 PM 68.0 °F - 62.1 °F 81% 30.01 in 10.0 mi South 13.8 mph - 0.01 in Rain Light Rain
3:54 PM 72.0 °F - 61.0 °F 68% 29.98 in 10.0 mi South 10.4 mph - 0.00 in   Scattered Clouds
4:54 PM 73.9 °F - 57.9 °F 57% 29.97 in 10.0 mi South 10.4 mph - N/A   Clear
5:54 PM 73.9 °F - 59.0 °F 59% 29.96 in 10.0 mi SSW 4.6 mph - N/A   Clear
6:54 PM 72.0 °F - 60.1 °F 66% 29.99 in 10.0 mi SW 13.8 mph - N/A   Scattered Clouds
7:54 PM 69.1 °F - 57.9 °F 68% 29.99 in 10.0 mi SW 8.1 mph - N/A   Clear
8:54 PM 66.9 °F - 59.0 °F 76% 30.01 in 10.0 mi Calm Calm - N/A   Clear
9:54 PM 64.9 °F - 57.9 °F 78% 30.01 in 10.0 mi Calm Calm - N/A   Clear
10:54 PM 64.9 °F - 57.9 °F 78% 30.00 in 10.0 mi Calm Calm - N/A   Clear
11:54 PM 63.0 °F - 57.9 °F 84% 29.99 in 10.0 mi South 3.5 mph - N/A   Clear